Regional Weather Roundup
Issued by NWS Sioux Falls, SD

Home | Current Version | Previous Version | Graphics & Text | Print | Product List | Glossary On
Versions: 1 2 3 4 5 6 7 8 9 10 11 12 13 14 15 16 17 18 19 20 21 22 23 24 25 26 27 28 29 30 31 32 33 34 35 36 37 38 39 40 41 42 43 44 45 46 47 48 49 50
000
ASUS43 KFSD 291010
RWRFSD

WEATHER ROUNDUP FOR SE SOUTH DAKOTA/SW MINNESOTA/NW IOWA
NATIONAL WEATHER SERVICE SIOUX FALLS SD
500 AM CDT THU JUN 29 2017

NOTE: "FAIR" INDICATES FEW OR NO CLOUDS BELOW 12,000 FEET WITH NO
SIGNIFICANT WEATHER AND OR OBSTRUCTIONS TO VISIBILITY.


SDZ038>040-050-052>070-291100-
SOUTHEAST SOUTH DAKOTA

CITY           SKY/WX    TMP DP  RH WIND       PRES   REMARKS
BROOKINGS      PTCLDY    54  53  97 CALM      29.74S
CHAMBERLAIN    CLOUDY    65  44  45 E6        29.72F
HURON          CLOUDY    54  49  83 N3        29.73S
MADISON        FAIR      54  54 100 NE6       29.74S
MITCHELL       CLOUDY    57  51  80 NE5       29.73S
SIOUX FALLS    MOCLDY    57  56  96 CALM      29.74R
WINNER         FAIR      65  51  60 CALM      29.74S
YANKTON        MOCLDY    64  55  72 E6        29.75R
$$

MNZ071-072-080-081-089-090-097-098-291100-
SOUTHWEST MINNESOTA

CITY           SKY/WX    TMP DP  RH WIND       PRES   REMARKS
FAIRMONT       CLEAR     60  58  92 W3        29.74R
JACKSON        CLEAR     59  59 100 CALM      29.76R
LUVERNE        PTCLDY    55  54  94 CALM      29.75R FOG
MARSHALL       PTCLDY    57  56  96 W8        29.73R
MONTEVIDEO     CLOUDY    61  61 100 N9        29.69F
PIPESTONE      PTCLDY    61  55  82 CALM      29.74S
REDWOOD FALLS  CLEAR     60  58  92 CALM      29.69F
TRACY          PTCLDY    61  60  95 W3        29.73R
WINDOM         CLOUDY    57  55  94 SW3       29.73R
WORTHINGTON    CLOUDY    58  57  97 SW3       29.76R
$$

IAZ001>003-012>014-020>022-031-032-NEZ013-014-SDZ071-291100-
NORTHWEST IOWA

CITY           SKY/WX    TMP DP  RH WIND       PRES   REMARKS
CHEROKEE       PTCLDY    61  61 100 SE3       29.77R
DENISON        CLOUDY    66  66 100 NE6       29.77R
ESTHERVILLE    CLEAR     59  59 100 SW7       29.76R
LE MARS        CLOUDY    63  59  88 CALM      29.76F
ORANGE CITY    CLOUDY    61  61 100 SE5       29.77R
SHELDON        PTCLDY    59  57  94 SE3       29.76R
SIOUX CITY     CLOUDY    65  62  90 E8        29.74F
SPENCER        CLEAR     60  59  96 S5        29.77R
STORM LAKE     CLOUDY    63  61  94 CALM      29.78R
$$

ABBREVIATIONS USED IN REMARKS
   TC - TEMPERATURE IN CELSIUS
  WCI - WIND CHILL INDEX
   HX - HEAT INDEX
  VSB - VISIBILITY





USA.gov is the U.S. government's official web portal to all federal, state and local government web resources and services.